Location: Gro�wechsungen
(51.4926°N, 10.6901°E)
Time: 03:33:08
(UTC+00:00)

Nadezhda 4 Rocket - Pass Details

Date: 18 September 2020
Orbit: 949 x 993 km, 82.9° (Epoch: 22 October)

Event Time Altitude Azimuth Distance (km) Brightness Sun altitude
Rises 18:49:23 0° 350° (N) 3,643 7.4 -13.8°
Reaches altitude 10° 18:51:55 10° 353° (N) 2,690 6.7 -14.2°
Maximum altitude 18:58:03 74° 78° (ENE) 992 3.9 -15.1°
Drops below altitude 10° 19:04:09 10° 164° (SSE) 2,670 5.9 -15.9°
Enters shadow 19:04:42 - 164° (SSE) 2,875 6.1 -16.0°
